Welcome to the New NWS' Forecast!
Most changes are behind the scenes, but click here for differences you might notice.

Regional Weather Roundup (RWR)

Issued by Spokane, WA (OTX)

                            
989 
NZUS01 KOTX 201300
RWROTX

Eastern Washington/Northern Idaho Roundup     
National Weather Service, Spokane WA
600 AM PDT MON AUG 20 2018

Note: "fair" indicated few or no clouds below 12,000 feet with no
significant weather and/or obstructions to visibility.

...Northeast Washington and Northern Idaho Panhandle...
  
CITY           SKY/WX    TMP DP  RH WIND       PRES   REMARKS
Spokane Intl   SMOKE     57  45  64 N7        29.99S VSB 3/4          
Spokane Downto SMOKE     54  47  77 CALM      29.99S VSB 1            
Coeur d Alene  CLEAR     62  46  55 N13       30.00R HAZE             
Deer Park      CLOUDY    56  42  59 N7        30.01R HAZE             

...Southeast Washington and southern Idaho Panhandle...
  
CITY           SKY/WX    TMP DP  RH WIND       PRES   REMARKS
Walla Walla    HAZE      66  39  37 S9        29.94R VSB 3/4          
Pullman/Moscow CLOUDY    60  45  57 CALM      29.99F HAZE             
Lowell           N/A     59  49  69 VRB3      29.99S                  

...Columbia Basin...
  
CITY           SKY/WX    TMP DP  RH WIND       PRES   REMARKS
Ephrata        CLOUDY    71  34  25 N20       29.95S HAZE             
Moses Lake     CLOUDY    59  39  47 CALM      29.96S HAZE             
Pasco          MOCLDY    57  49  74 CALM      29.93R HAZE             
Hermiston      MOCLDY    64  44  48 W7        29.92S HAZE             
Pendleton      CLOUDY    63  37  38 N9        29.94F HAZE             

...East Slopes Cascades...
  
CITY           SKY/WX    TMP DP  RH WIND       PRES   REMARKS
The Dalles     CLOUDY    65  55  70 SW5       29.94R                  
Yakima         CLOUDY    56  49  77 W7        29.98R HAZE             
Ellensburg     CLOUDY    55  46  71 CALM      30.01S HAZE             
Wenatchee      CLOUDY    62  47  57 NW8       29.99S HAZE             
Omak           CLOUDY    65  41  41 N14       30.02R HAZE             
Sunnyside      SUNNY     69  47  46 W9        29.94R HAZE             

...Southern British Columbia...
  
CITY           SKY/WX    TMP DP  RH WIND       PRES   REMARKS

...Western Montana...
  
CITY           SKY/WX    TMP DP  RH WIND       PRES   REMARKS
Kalispell      CLOUDY    64  40  41 NE15G28   30.12R HAZE             
Missoula       MOCLDY    67  40  37 E9G22     30.08R HAZE             

...Neighboring Cities...
  
CITY           SKY/WX    TMP DP  RH WIND       PRES   REMARKS
Portland       PTCLDY    61  56  83 CALM      30.01R                  
Boise          CLEAR     62  45  53 S6        29.87R                  
Great Falls    CLOUDY    52  42  69 NE12      30.21R                  
Calgary        CLOUDY    52  46  82 NW5       30.38R FOG